Temperature
0 1 1 1 1 1 0 -0 -0 1 1 3 3 2 2 3 3 3 3 3 3 3 3 3 3 4 4 4 4 4 4 5 5 5 5 6 6 7 7 8 8 8 8 9
-0 1 1 1 1 1 1 1 1 1 2 3 3 3 2 3 3 3 3 3 3 3 3 3 3 3 3 4 4 4 4 4 5 5 5 6 6 7 7 7 8 8 8 9
-0 -0 0 0 1 1 1 1 1 1 2 2 2 2 2 2 3 3 3 3 2 2 2 2 3 3 3 3 3 4 4 4 4 5 5 6 6 6 7 7 7 8 8 8
-1 -1 -1 2 2 2 1 1 1 1 2 2 2 2 3 3 3 2 2 2 2 2 2 2 2 2 3 3 3 3 4 4 4 4 5 5 6 6 6 7 7 7 8 8
-1 -2 -1 1 2 1 1 0 1 1 2 1 2 2 2 3 3 2 2 2 2 2 2 2 2 2 2 3 3 3 3 3 4 4 4 5 5 5 6 6 7 7 7 8
-1 -1 -1 1 2 2 1 -0 1 1 1 1 1 -0 1 3 2 2 2 2 1 1 1 2 2 2 2 2 2 3 3 3 3 3 4 4 5 5 6 6 6 7 7 7
-1 -1 -0 1 2 2 0 0 2 2 2 1 0 1 2 2 2 2 1 1 1 1 1 1 1 2 2 2 2 2 2 3 3 3 4 4 5 5 5 5 6 6 7 7
-2 -1 0 1 1 0 1 2 3 2 2 2 2 2 2 1 1 1 1 1 1 1 1 1 1 1 1 2 2 2 2 2 3 3 3 4 4 5 5 5 5 6 6 6
-1 1 1 2 2 3 3 3 3 2 2 2 1 1 1 1 1 1 0 0 0 0 1 1 1 1 1 1 2 2 2 2 2 3 3 4 4 4 4 5 5 5 5 6
-2 -1 0 2 2 3 3 2 2 2 2 1 1 1 0 0 0 -0 -0 -0 0 0 0 1 1 1 1 1 1 1 1 2 2 2 3 3 4 4 4 4 4 5 5 5
-1 -1 -0 1 2 2 2 2 2 1 1 1 0 0 -0 -0 -0 -1 -1 -0 -0 -0 0 0 1 1 1 1 1 1 1 1 1 2 2 3 3 4 4 4 4 4 5 5
0 0 -0 0 2 2 1 1 1 1 0 0 -0 -1 -1 -1 -1 -1 -1 -1 -1 -0 -0 0 0 0 0 0 0 0 1 1 1 1 2 2 3 3 3 4 4 4 5 5
2 2 2 1 1 1 1 0 0 -0 -0 -1 -1 -1 -1 -1 -1 -2 -1 -1 -1 -1 -1 -1 -0 -0 0 0 0 0 0 0 1 1 1 2 2 2 3 3 4 4 5 5
1 1 0 1 0 0 -0 -0 -1 -1 -1 -1 -2 -2 -2 -2 -2 -2 -2 -1 -1 -1 -1 -1 -1 -0 -0 -0 -0 -0 -0 0 0 1 1 1 2 2 2 3 3 4 4 5
0 0 0 -0 -0 -0 -1 -1 -1 -1 -2 -2 -2 -2 -2 -3 -2 -2 -2 -2 -2 -2 -1 -1 -1 -1 -1 -1 -1 -0 -0 -0 -0 0 0 1 1 2 2 2 3 3 4 4
-0 -0 -1 -1 -1 -1 -1 -2 -2 -2 -2 -3 -3 -3 -3 -3 -3 -3 -2 -2 -2 -2 -2 -2 -1 -1 -1 -1 -1 -1 -1 -1 -0 -0 0 1 1 1 2 2 2 3 3 4
-1 -2 -1 -2 -2 -2 -2 -3 -3 -3 -3 -3 -3 -3 -3 -3 -3 -3 -3 -3 -3 -3 -2 -2 -2 -1 -1 -1 -1 -1 -1 -1 -1 -0 -0 0 1 1 2 2 2 3 3 3
-1 -2 -2 -2 -2 -3 -3 -3 -3 -3 -4 -4 -4 -4 -4 -4 -4 -4 -4 -3 -3 -3 -2 -2 -2 -2 -2 -2 -1 -1 -1 -1 -1 -0 -0 0 1 1 2 2 2 2 3 3
-2 -2 -2 -2 -3 -3 -3 -4 -4 -4 -4 -4 -4 -4 -4 -4 -4 -4 -4 -4 -4 -3 -2 -2 -2 -2 -2 -2 -2 -2 -1 -1 -1 -1 -0 0 1 1 1 2 2 2 2 3
-2 -3 -3 -3 -3 -4 -4 -4 -4 -5 -5 -5 -5 -5 -5 -5 -5 -5 -5 -5 -4 -4 -3 -3 -3 -2 -2 -2 -2 -2 -1 -1 -1 -1 -0 -0 0 1 1 1 2 2 2 2
-3 -3 -3 -4 -4 -4 -4 -5 -5 -5 -5 -5 -5 -5 -5 -5 -5 -5 -5 -5 -4 -4 -4 -4 -3 -3 -3 -2 -2 -2 -2 -1 -1 -1 -0 -0 0 0 1 1 1 2 2 2
-4 -4 -4 -4 -4 -5 -5 -5 -5 -5 -6 -6 -6 -6 -6 -6 -6 -6 -5 -5 -5 -5 -4 -4 -3 -3 -3 -3 -2 -2 -2 -1 -1 -1 -1 -0 -0 0 1 1 1 1 2 2
-4 -4 -5 -5 -5 -5 -5 -5 -6 -6 -6 -6 -6 -6 -6 -6 -6 -6 -6 -5 -5 -5 -5 -4 -4 -4 -3 -3 -3 -2 -2 -2 -1 -1 -1 -1 0 0 0 1 1 1 2 2
-5 -5 -5 -5 -6 -6 -6 -6 -6 -6 -6 -7 -7 -7 -7 -7 -6 -6 -6 -6 -6 -5 -5 -4 -4 -4 -3 -3 -3 -3 -2 -2 -2 -1 -1 -0 -0 0 0 0 1 1 1 2
-6 -6 -6 -6 -6 -6 -7 -7 -7 -7 -7 -7 -7 -7 -7 -7 -7 -6 -6 -6 -6 -5 -5 -5 -4 -4 -4 -3 -3 -3 -2 -2 -2 -1 -1 -0 -0 -0 0 0 1 1 1 1
-6 -6 -7 -7 -7 -7 -7 -8 -8 -8 -8 -7 -7 -7 -7 -7 -7 -6 -6 -6 -6 -6 -5 -5 -4 -4 -4 -3 -3 -3 -2 -2 -1 -1 -1 -1 -0 -0 0 0 1 1 1 1
-7 -7 -7 -7 -7 -8 -8 -8 -8 -8 -8 -8 -8 -7 -7 -7 -7 -7 -7 -7 -6 -6 -6 -5 -5 -4 -4 -4 -3 -3 -2 -2 -1 -1 -1 -1 -0 -0 0 0 1 1 1 1
Wind_Speed
15 14 11 16 18 13 14 13 13 18 21 24 19 15 14 13 13 13 13 13 12 11 10 10 11 11 10 10 8 7 7 6 6 6 7 6 6 6 6 7 9 11 11 12
10 11 13 20 21 19 18 16 19 22 24 20 15 12 11 12 12 12 12 12 12 12 11 11 11 11 11 10 9 7 6 7 7 6 6 5 5 4 5 5 7 9 10 12
7 5 7 12 13 12 10 10 11 15 16 13 10 11 11 11 10 10 11 12 11 11 11 11 11 10 10 10 9 7 7 7 7 6 5 5 3 3 4 4 5 7 9 11
5 3 9 10 4 7 9 13 13 13 12 10 10 10 9 9 8 10 11 11 11 10 10 10 10 10 9 9 8 7 7 7 7 7 6 4 3 2 3 4 4 5 7 9
4 5 11 10 6 6 7 10 10 11 11 9 8 7 8 8 7 9 10 10 10 10 10 10 10 10 9 9 9 7 7 7 6 6 6 5 4 3 2 3 4 4 6 7
5 5 9 9 5 3 0 8 7 6 8 8 5 7 10 9 9 10 11 10 10 9 9 9 10 8 8 9 8 8 8 7 6 6 6 5 5 3 2 2 4 4 4 6
11 10 11 9 5 3 2 8 5 5 7 7 6 9 10 11 10 10 11 11 10 9 9 9 9 8 8 9 8 8 7 7 6 5 5 5 4 3 1 1 2 3 3 4
7 9 12 6 5 7 10 6 5 7 7 8 10 11 11 11 11 11 11 11 10 9 10 9 8 7 9 9 9 8 6 6 6 6 5 5 4 3 1 2 2 3 3 2
11 12 7 6 8 7 5 6 7 7 9 9 10 11 11 10 11 11 11 10 9 9 10 10 8 7 8 9 8 7 6 6 6 6 5 4 4 3 1 2 2 3 3 3
8 12 10 9 8 8 8 9 9 9 10 9 10 11 11 10 10 10 10 10 9 9 10 10 9 8 8 9 7 6 6 6 5 5 6 5 4 3 2 3 3 3 4 4
11 11 8 9 10 11 10 9 9 9 9 9 10 11 10 10 10 10 10 9 8 8 10 11 9 9 8 7 6 6 6 5 5 5 5 4 4 3 3 4 5 5 4 5
12 10 8 9 7 8 9 10 10 9 10 9 8 10 10 10 9 9 9 9 9 9 9 9 9 9 8 6 5 5 5 5 4 4 4 3 3 3 3 4 4 5 6 6
12 9 9 10 8 7 8 8 9 9 9 9 8 8 8 9 9 9 9 9 9 9 9 9 9 9 8 6 5 5 5 5 4 4 4 4 3 2 2 3 2 3 4 5
9 7 8 8 8 7 7 8 8 7 7 7 7 7 8 9 9 9 10 10 9 9 9 9 9 8 7 6 6 5 5 6 5 4 4 4 3 3 2 2 1 1 1 4
9 8 9 7 6 6 5 5 6 6 7 7 6 7 7 9 10 11 10 10 9 9 9 8 8 9 7 6 5 5 5 4 4 4 4 4 3 3 2 3 2 2 0 2
6 5 6 6 7 6 5 5 6 7 7 8 7 8 8 9 10 11 10 9 9 10 10 9 9 8 7 6 5 5 5 7 6 4 4 4 3 3 2 3 3 3 3 3
5 5 5 6 6 6 6 6 6 8 7 8 8 8 8 9 10 10 10 9 9 10 9 9 9 8 7 6 5 4 4 5 6 5 4 4 3 3 3 3 3 3 3 4
6 7 6 6 6 6 7 6 6 7 7 8 8 7 8 8 10 11 11 11 10 10 9 8 9 8 7 6 5 4 4 4 4 4 4 4 4 3 3 4 4 3 3 3
3 4 4 5 5 5 6 6 6 6 6 6 7 7 8 9 9 10 10 10 10 11 10 9 13 10 8 7 7 4 4 4 4 4 3 4 3 3 3 4 4 4 4 4
1 2 3 3 4 4 5 5 5 6 6 6 7 8 9 9 9 9 9 9 8 8 10 11 10 8 7 6 7 4 4 4 4 4 3 3 3 3 3 4 4 4 4 4
2 2 3 4 5 5 5 5 5 6 7 6 7 8 9 9 9 8 8 10 9 9 10 13 9 7 6 6 7 4 4 4 4 4 3 3 3 3 3 4 4 5 5 5
2 2 4 4 4 5 5 5 5 6 6 7 7 7 8 9 9 9 8 8 10 13 10 8 7 9 9 9 5 4 4 4 3 3 3 3 4 4 4 5 5 5 5 5
2 3 4 4 5 6 6 5 5 5 6 7 8 8 8 9 8 8 9 8 8 13 10 8 11 13 13 7 4 4 3 3 3 2 3 3 4 5 5 6 5 6 6 6
3 3 4 4 4 5 6 6 6 6 7 8 8 8 8 8 8 7 7 12 14 15 9 11 14 13 11 5 4 3 3 2 2 2 2 3 4 5 5 6 6 5 6 7
3 3 4 4 4 5 6 7 7 7 7 6 7 8 7 6 7 8 8 9 13 13 9 11 13 12 7 5 4 4 3 3 2 2 2 3 4 5 5 6 6 6 6 6
3 4 4 5 5 5 5 5 5 6 6 7 8 7 6 6 7 7 7 9 10 11 9 7 7 8 5 4 4 3 3 2 2 2 3 4 5 6 6 6 7 6 6 7
3 3 4 4 4 4 4 5 6 6 6 7 8 8 7 7 7 7 8 8 7 7 7 6 5 5 4 4 3 3 2 1 1 2 3 4 5 6 7 7 6 6 7 7
Wind_Direction
252 263 266 265 267 253 236 234 245 263 270 279 288 293 296 298 302 309 314 318 320 320 320 322 323 323 325 323 321 316 314 312 296 289 287 279 264 242 216 202 199 196 193 191
268 257 262 270 267 260 254 247 248 261 272 273 282 288 291 298 302 307 312 316 320 320 322 321 319 320 323 322 320 317 310 310 309 302 295 288 272 233 206 207 203 197 194 193
272 287 295 270 255 242 235 232 232 251 262 281 294 295 294 294 296 302 309 313 317 317 314 312 313 315 317 314 314 315 311 316 318 315 313 304 281 232 207 205 207 201 198 196
277 327 258 249 218 224 242 255 243 249 264 277 279 288 285 276 278 295 303 307 308 307 306 307 308 313 315 319 320 316 315 319 323 327 326 322 308 256 216 206 209 203 198 200
233 256 273 281 256 223 235 270 249 250 267 279 286 304 292 275 275 283 289 293 295 295 296 301 304 311 317 320 320 321 320 319 320 321 321 322 314 299 244 215 215 211 203 198
218 235 255 255 237 225 175 282 260 241 263 279 303 306 295 295 293 293 296 296 296 296 297 301 302 310 315 312 312 312 311 307 307 312 312 310 306 287 274 232 222 218 215 201
229 241 261 255 228 137 213 257 272 252 264 274 264 262 280 294 295 293 296 297 299 298 297 295 299 308 307 304 301 299 301 304 306 309 304 298 301 293 256 239 223 217 211 201
205 227 250 221 162 198 230 250 260 267 271 272 276 281 287 291 293 298 301 302 304 302 299 297 298 300 300 299 297 298 299 303 305 305 302 306 306 300 243 197 217 218 200 189
204 224 242 200 212 234 234 248 258 262 271 273 278 281 286 289 292 294 296 297 298 297 297 297 295 290 292 295 300 302 300 300 302 307 305 301 295 283 235 200 203 222 202 193
243 256 256 256 257 263 258 254 259 262 268 272 274 279 285 288 291 294 296 295 297 299 299 298 297 291 284 290 295 295 296 298 300 306 307 304 294 267 225 218 214 215 208 199
248 264 276 260 247 252 259 263 269 271 268 268 273 280 281 286 289 291 294 294 294 294 293 293 296 295 292 291 293 292 295 295 299 297 296 302 305 290 251 244 229 221 216 204
245 238 232 254 248 246 256 263 265 272 278 278 270 276 283 286 287 290 293 295 296 296 295 294 295 294 297 297 289 290 295 295 293 293 291 290 302 317 302 252 263 249 236 223
244 251 245 257 262 256 257 265 270 268 268 277 280 279 284 289 292 294 297 298 297 296 295 293 294 294 298 300 294 290 287 289 286 284 282 283 282 281 306 329 310 250 216 206
245 250 260 257 259 264 265 270 273 273 272 275 281 288 290 292 297 300 300 300 298 297 296 295 294 293 298 300 296 292 288 285 282 274 273 272 267 259 246 233 264 303 201 171
244 237 246 259 266 272 277 282 286 287 288 290 291 292 295 297 299 299 300 304 304 302 302 302 300 297 303 300 294 290 287 283 280 277 272 265 256 248 236 209 201 223 225 147
248 249 252 262 270 277 283 282 281 283 286 289 292 294 294 295 296 299 304 309 310 307 305 303 300 298 301 297 293 291 285 280 279 275 270 263 249 235 222 202 197 200 194 169
234 254 259 271 275 279 277 272 271 277 281 283 287 293 298 302 304 306 308 308 303 298 300 299 298 300 299 294 288 284 280 279 278 272 259 251 237 227 218 208 205 197 196 184
220 232 238 246 259 273 279 278 276 278 280 283 291 297 299 300 300 302 305 309 310 308 306 303 302 302 298 294 288 278 272 270 268 257 251 243 230 218 209 198 186 185 178 169
229 242 255 263 263 266 274 280 283 285 289 293 296 294 293 293 295 300 305 309 310 309 311 312 311 309 300 293 293 276 267 265 266 261 252 243 239 212 191 182 179 176 171 164
268 277 276 282 288 287 290 293 294 295 296 296 298 299 300 300 302 304 305 300 295 293 301 308 310 307 301 295 294 280 268 263 259 254 243 227 212 203 188 173 165 162 164 162
282 289 294 297 300 299 296 295 294 296 301 301 297 296 297 300 302 303 304 302 302 304 307 308 310 306 301 299 295 284 272 266 256 244 233 213 197 189 177 167 160 158 158 155
272 286 293 297 300 303 305 302 295 296 301 304 301 299 301 304 305 303 292 287 297 307 313 307 306 304 306 303 293 284 274 262 249 240 226 201 188 180 170 163 159 157 154 152
275 285 291 295 295 298 302 301 296 297 296 297 299 299 298 297 297 299 302 301 304 307 311 303 304 306 308 307 296 287 276 262 252 236 209 193 185 173 165 162 161 157 155 152
285 291 295 299 303 301 300 301 301 299 294 293 292 292 294 298 298 291 288 299 307 307 304 302 306 308 310 310 302 293 278 261 250 226 200 177 165 159 158 157 154 151 150 146
282 287 292 299 299 293 292 300 303 301 300 300 297 296 294 288 288 296 299 300 304 308 306 306 308 310 312 304 298 292 285 268 246 199 177 160 152 150 150 150 149 148 147 146
279 280 280 276 277 284 291 296 298 301 305 306 307 306 305 302 296 298 301 302 302 306 309 308 311 313 313 308 301 292 284 276 249 200 167 155 148 147 146 145 144 146 143 140
288 286 291 295 293 288 289 290 291 295 297 299 302 305 307 309 309 309 308 308 310 311 310 309 310 311 313 314 313 310 306 280 192 164 150 143 141 141 141 139 140 139 137 138
Height
1484 1479 1479 1476 1472 1471 1473 1470 1468 1450 1442 1429 1426 1424 1420 1416 1411 1406 1402 1397 1392 1387 1383 1378 1374 1371 1366 1363 1359 1357 1355 1352 1350 1349 1349 1348 1348 1349 1350 1353 1357 1361 1365 1370
1480 1474 1473 1467 1459 1458 1457 1454 1451 1444 1435 1424 1422 1420 1416 1412 1408 1403 1399 1395 1391 1386 1381 1377 1373 1369 1365 1361 1358 1355 1353 1351 1349 1347 1345 1345 1345 1346 1347 1350 1353 1357 1361 1365
1478 1473 1471 1462 1448 1446 1445 1441 1441 1437 1427 1420 1419 1416 1413 1409 1405 1401 1397 1393 1389 1384 1380 1376 1371 1368 1363 1359 1356 1353 1351 1349 1347 1345 1343 1342 1342 1344 1345 1347 1349 1353 1357 1361
1478 1478 1473 1445 1438 1437 1437 1432 1430 1426 1421 1419 1416 1412 1409 1406 1402 1398 1394 1390 1386 1382 1378 1373 1369 1365 1362 1358 1354 1351 1348 1347 1345 1342 1341 1341 1341 1342 1343 1345 1346 1349 1353 1356
1477 1476 1460 1441 1434 1433 1434 1428 1422 1420 1417 1414 1411 1408 1404 1402 1399 1395 1391 1387 1383 1378 1374 1370 1366 1363 1359 1355 1352 1350 1347 1345 1343 1342 1340 1339 1339 1340 1340 1342 1344 1346 1349 1352
1471 1470 1458 1434 1429 1426 1430 1429 1416 1415 1413 1411 1409 1409 1400 1397 1394 1390 1386 1382 1378 1374 1370 1366 1363 1360 1357 1353 1351 1348 1346 1344 1343 1341 1339 1338 1338 1338 1338 1339 1341 1343 1345 1348
1462 1459 1443 1427 1425 1426 1434 1425 1413 1411 1409 1407 1406 1403 1397 1393 1389 1386 1381 1377 1373 1369 1365 1362 1359 1356 1353 1350 1348 1346 1344 1343 1341 1340 1338 1337 1336 1336 1337 1337 1339 1340 1342 1345
1456 1453 1437 1419 1422 1423 1418 1411 1409 1407 1406 1403 1400 1396 1392 1389 1385 1381 1376 1372 1368 1364 1361 1358 1355 1353 1349 1346 1345 1343 1341 1339 1338 1337 1336 1335 1334 1334 1335 1336 1336 1338 1339 1342
1437 1426 1414 1412 1412 1410 1409 1408 1405 1403 1401 1399 1395 1391 1388 1384 1380 1376 1372 1368 1364 1360 1356 1353 1351 1349 1346 1343 1341 1339 1338 1336 1334 1333 1333 1332 1331 1331 1332 1333 1335 1336 1338 1340
1426 1414 1410 1409 1407 1407 1406 1403 1400 1399 1397 1394 1390 1386 1383 1379 1375 1371 1367 1363 1360 1356 1352 1349 1346 1344 1342 1340 1338 1336 1333 1332 1331 1330 1329 1329 1328 1329 1329 1331 1332 1334 1335 1338
1416 1408 1406 1402 1402 1401 1399 1398 1395 1393 1391 1388 1385 1381 1378 1374 1370 1366 1362 1359 1356 1352 1348 1345 1342 1340 1338 1336 1334 1332 1330 1330 1328 1328 1327 1326 1326 1327 1328 1329 1330 1331 1333 1335
1404 1399 1400 1396 1395 1395 1394 1392 1390 1387 1384 1382 1380 1376 1373 1369 1365 1362 1358 1354 1351 1347 1344 1341 1338 1335 1333 1331 1330 1328 1327 1326 1325 1324 1324 1324 1323 1324 1325 1326 1327 1329 1330 1332
1393 1393 1392 1390 1390 1390 1388 1386 1384 1382 1379 1376 1374 1371 1368 1364 1360 1357 1353 1350 1346 1343 1340 1337 1334 1331 1329 1327 1326 1324 1323 1322 1322 1321 1321 1320 1320 1321 1321 1323 1324 1326 1328 1330
1388 1388 1387 1385 1385 1384 1382 1380 1378 1376 1374 1371 1369 1366 1363 1359 1355 1352 1348 1345 1342 1339 1335 1333 1330 1327 1326 1324 1322 1321 1320 1319 1319 1318 1318 1317 1317 1318 1319 1320 1321 1322 1324 1327
1383 1383 1382 1380 1379 1378 1377 1375 1373 1370 1368 1366 1363 1361 1358 1354 1351 1347 1344 1341 1337 1334 1331 1328 1325 1323 1322 1320 1318 1317 1316 1315 1315 1314 1314 1314 1315 1316 1317 1317 1318 1320 1321 1325
1377 1377 1377 1376 1374 1373 1372 1370 1368 1366 1363 1361 1358 1356 1353 1350 1347 1343 1340 1337 1333 1329 1327 1324 1321 1319 1318 1316 1315 1314 1312 1312 1311 1311 1311 1311 1312 1312 1313 1315 1316 1318 1320 1322
1373 1372 1372 1371 1370 1368 1367 1366 1364 1362 1359 1356 1354 1351 1349 1346 1342 1338 1335 1332 1329 1326 1323 1320 1317 1315 1314 1312 1311 1309 1308 1308 1308 1308 1308 1308 1309 1309 1310 1312 1314 1316 1318 1321
1368 1368 1368 1367 1366 1364 1362 1361 1359 1357 1355 1352 1350 1347 1344 1341 1338 1334 1331 1327 1324 1321 1319 1316 1314 1311 1309 1308 1306 1305 1305 1304 1304 1304 1304 1305 1306 1307 1308 1310 1312 1314 1316 1320
1364 1364 1364 1363 1362 1360 1358 1357 1355 1353 1351 1348 1346 1343 1340 1338 1334 1331 1327 1324 1320 1316 1313 1312 1309 1307 1305 1304 1303 1302 1301 1301 1300 1301 1301 1302 1303 1304 1306 1308 1310 1312 1314 1317
1362 1361 1360 1359 1358 1357 1355 1353 1351 1349 1346 1344 1341 1339 1336 1333 1330 1327 1323 1320 1317 1314 1311 1308 1305 1303 1301 1300 1299 1298 1298 1297 1297 1297 1297 1298 1300 1301 1303 1306 1308 1311 1314 1316
1359 1358 1357 1356 1355 1353 1352 1349 1347 1344 1342 1340 1338 1335 1332 1329 1326 1323 1319 1315 1312 1310 1307 1304 1302 1300 1298 1297 1296 1295 1294 1293 1293 1294 1294 1295 1297 1299 1301 1304 1306 1309 1312 1315
1357 1356 1355 1353 1351 1350 1348 1346 1344 1341 1338 1336 1334 1331 1328 1325 1322 1318 1316 1313 1309 1306 1303 1300 1298 1296 1295 1294 1293 1292 1291 1290 1290 1290 1291 1292 1294 1296 1299 1302 1305 1308 1311 1314
1354 1353 1352 1350 1348 1346 1344 1342 1340 1337 1335 1332 1330 1327 1324 1321 1319 1315 1311 1308 1306 1303 1300 1297 1295 1293 1292 1290 1289 1288 1287 1287 1287 1287 1288 1290 1292 1294 1297 1300 1303 1307 1310 1314
1351 1350 1349 1347 1345 1343 1341 1338 1336 1334 1331 1329 1326 1324 1321 1317 1314 1312 1309 1305 1302 1299 1296 1294 1292 1290 1289 1287 1286 1285 1284 1284 1284 1285 1286 1288 1290 1293 1296 1299 1303 1306 1310 1314
1348 1347 1345 1344 1342 1339 1337 1335 1332 1330 1327 1324 1322 1320 1317 1315 1311 1307 1305 1301 1298 1296 1293 1290 1288 1286 1285 1284 1283 1282 1281 1281 1282 1283 1284 1286 1289 1292 1295 1299 1302 1306 1309 1313
1345 1343 1342 1340 1338 1336 1334 1331 1329 1326 1324 1320 1318 1315 1313 1310 1307 1304 1301 1298 1295 1292 1290 1287 1285 1283 1281 1280 1280 1279 1279 1279 1280 1282 1283 1285 1288 1291 1295 1298 1302 1305 1309 1313
1341 1340 1338 1336 1334 1333 1330 1328 1325 1323 1320 1317 1314 1312 1309 1306 1304 1300 1298 1295 1292 1289 1287 1285 1283 1281 1279 1278 1277 1277 1277 1278 1279 1281 1283 1285 1288 1291 1295 1298 1302 1306 1310 1314